Flag for U.S.A. Weather past 2 weeks in Greensboro, North Carolina, U.S.A.

Now
32 °F

Light snow. Ice fog.


Feels Like: 26 °F
Forecast: 21 / 37 °F
Wind: 7 mph from North

Location: Piedmont Triad International Airport

Current Time: Mar 5, 2015 at 10:11:12 PM

Latest Report: Mar 5, 2015 at 8:54 PM


Visibility: 4 mi

Pressure: 30.27 "Hg

Humidity: 92%

Dew point: 30 °F

Location of GreensboroLocation

Historic Weather in Greensboro — Graph

°F

Greensboro temperature yesterday

Maximum temperature yesterday: 72 °F (at 1:54 PM)
Minimum temperature yesterday: 39 °F (at 12:54 AM)
Average temperature yesterday: 58 °F

Past Weeks' High & Low Weather Summary

 TemperatureHumidityPressure
High72 °F (Mar 4, 1:54 PM)100% (Feb 25, 10:54 PM)30.76 "Hg (Feb 25, 10:54 PM)
Low6 °F (Feb 20, 5:54 AM)23% (Feb 20, 3:54 PM)29.71 "Hg (Feb 26, 4:01 AM)
Average34 °F67%30.20 "Hg
* Reported Feb 18 8:54 PM — Mar 5 8:54 PM, Greensboro, Weather by CustomWeather, © 2015

Note: Actual official high and low records may vary slightly from our data, if they occured in-between our weather recording intervals... More about our weather records

Advertising

Greensboro weather history for previous 24 hours

 ConditionsComfort  
Time TempWeatherWind HumidityBarometerVisibility
8:54 PM
Thu, Mar 5
32 °FLight snow. Ice fog.7 mph92%30.27 "Hg4 mi
7:54 PM34 °FMostly cloudy.9 mph85%30.27 "Hg10 mi
6:54 PM34 °FLight snow. Fog.14 mph88%30.21 "Hg5 mi
5:54 PM35 °FLight rain. Mostly cloudy.14 mph88%30.15 "Hg10 mi
4:54 PM36 °FLight rain. Mostly cloudy.15 mph89%30.09 "Hg10 mi
3:54 PM37 °FLight rain. Mostly cloudy.18 mph89%30.02 "Hg7 mi
2:54 PM38 °FLight rain. Fog.15 mph90%30.01 "Hg1 mi
1:54 PM39 °FLight rain. Fog.16 mph89%30.02 "Hg1 mi
12:54 PM40 °FLight rain. Fog.13 mph93%30.03 "Hg1 mi
11:54 AM42 °FLight rain. Fog.16 mph92%29.96 "Hg1 mi
10:54 AM44 °FLight rain. Fog.6 mph93%29.94 "Hg1 mi
9:54 AM45 °FRain. Fog.9 mph93%29.92 "Hg1 mi
8:54 AM49 °FHeavy rain. Fog.14 mph93%29.90 "Hg1 mi
8:01 AM52 °FLight rain. Fog.10 mph94%29.89 "Hg1 mi
6:54 AM51 °FLight rain. Low clouds.10 mph96%29.85 "Hg10 mi
5:54 AM52 °FLight rain. Fog.9 mph93%29.86 "Hg4 mi
4:54 AM52 °FLow clouds.9 mph93%29.85 "Hg10 mi
4:01 AM54 °FMostly cloudy.9 mph94%29.86 "Hg10 mi
3:54 AM53 °FMostly cloudy.10 mph93%29.84 "Hg10 mi
2:54 AM63 °FLight rain. Mostly cloudy.7 mph87%29.83 "Hg7 mi
1:54 AM65 °FOvercast.10 mph78%29.83 "Hg10 mi
12:54 AM65 °FMostly cloudy.9 mph76%29.83 "Hg10 mi
11:54 PM
Wed, Mar 4
64 °FPartly cloudy.10 mph78%29.84 "Hg10 mi
10:54 PM65 °FPassing clouds.14 mph76%29.85 "Hg10 mi
Weather by CustomWeather, © 2015

See weather overviewHow to use our weather pages